Aérodrome :
LOGIN :

S'inscrire | Disclaimer

   EN    FR    IT 

 










Légende :    VFR   VFR Marginal   IFR   IFR Intensif   IFR Très Intensif
Visi : 
Plafond : 
>= 8 km
>= 3000ft
5 à 8 km
1000 à 3000 ft
1500m à 5 km
500 à 1000 ft
800 à 1500m
200 à 500 ft
< 800m
< 200 ft
Symboles :   Orages  Brouillard  Fortes neiges  Fortes précipitations  Vent > 20 kt
SIGMETs :   Divers  Orages  Givrage  Turbulence  Onde Orograph.  Cendres Volcan.







- Altitude de l'aérodrome : 13 ft
- Code IATA : CAG


LIEE - Cagliari Elmas

DERNIER METAR :
  • 222020Z 15009KT CAVOK 27/25 Q1015

METARs EXPIRÉS :
  • 221950Z 14009KT CAVOK 27/25 Q1015
  • 221920Z 13009KT CAVOK 27/23 Q1014
  • 221850Z 13009KT CAVOK 28/23 Q1014
  • 221820Z 14009KT CAVOK 27/24 Q1014
  • 221750Z 14008KT CAVOK 28/24 Q1013

TAF TAF LIEE
Valide du 22 à 18h jusqu'au 23 à 18h UTC


221700Z 2218/2318 VRB05KT CAVOK
TEMPO 2302/2305 3000 BR
BECMG 2309/2311 16012KT
Pas de NOTAMs connus pour ce terrain.



MET'MAP, la Météo Aéronautique d'un coup d'oeil ! - Copyright ORBIFLY Décembre 2007 - Disclaimer

ORBIFLY MET'MAP TEAM :

Programmation & Développement : Alexandra Zaïnal
Conception & Développement : Baudouin d'Aumeries
Co-Programmation & Développement : Marc-Olivier Méhu
Soutien technique & logistique : Manuel Goepfert

Contact : metmap@orbifly.com




SOURCES & CREDITS :

   NOAA